When you browse on this site, cookies collect data to enhance your experience and personalize the content and advertising you see.
Visit our Privacy Policy to learn more. By continuing to use the site, you agree to this use of cookies and data.
  • In Spain
  • List of Countries
  • For 7 days
  • Water Temperature
  • Weather Map
  • Weather Widgets
  • user-avatar
    Login

    Hourly Weather Kanye

    Today, 5 April, Sunday

    Time Temperature Precipitation Wind Pressure Humidity
    00:00 +18°C° 0 mm 1 mps 651 mmHg 61%
    01:00 +16°C° 0 mm 1 mps 651 mmHg 64%
    02:00 +15°C° 0 mm 1 mps 651 mmHg 65%
    03:00 +15°C° 0 mm 1 mps 651 mmHg 69%
    04:00 +14°C° 0 mm 1 mps 651 mmHg 73%
    05:00 +14°C° 0 mm 1 mps 650 mmHg 77%
    06:00 +15°C° 0 mm 1 mps 651 mmHg 74%
    07:00 +16°C° 0 mm 2 mps 651 mmHg 71%
    08:00 +18°C° 0 mm 2 mps 652 mmHg 66%
    09:00 +21°C° 0 mm 1 mps 653 mmHg 55%
    10:00 +23°C° 0 mm 1 mps 653 mmHg 45%
    11:00 +25°C° 0 mm 1 mps 654 mmHg 34%
    12:00 +26°C° 0 mm 1 mps 653 mmHg 30%
    13:00 +27°C° 0 mm 1 mps 653 mmHg 27%
    14:00 +28°C° 0 mm 1 mps 653 mmHg 25%
    15:00 +27°C° 0 mm 1 mps 652 mmHg 25%
    16:00 +27°C° 0 mm 1 mps 651 mmHg 24%
    17:00 +27°C° 0 mm 1 mps 651 mmHg 23%
    18:00 +25°C° 0 mm 1 mps 651 mmHg 26%
    19:00 +23°C° 0 mm 1 mps 650 mmHg 30%
    20:00 +21°C° 0 mm 1 mps 650 mmHg 33%
    21:00 +20°C° 0 mm 1 mps 650 mmHg 34%
    22:00 +20°C° 0 mm 1 mps 650 mmHg 35%
    23:00 +19°C° 0 mm 1 mps 650 mmHg 36%

    Tomorrow, 6 April, Monday

    Time Temperature Precipitation Wind Pressure Humidity
    00:00 +19°C° 0 mm 1 mps 650 mmHg 38%
    01:00 +16°C° 0 mm 0 mps 650 mmHg 39%
    02:00 +15°C° 0 mm 0 mps 649 mmHg 41%
    03:00 +16°C° 0 mm 1 mps 649 mmHg 40%
    04:00 +16°C° 0 mm 1 mps 649 mmHg 40%
    05:00 +16°C° 0 mm 1 mps 648 mmHg 40%
    06:00 +17°C° 0 mm 2 mps 649 mmHg 37%
    07:00 +19°C° 0 mm 2 mps 650 mmHg 35%
    08:00 +20°C° 0 mm 2 mps 651 mmHg 32%
    09:00 +24°C° 0 mm 2 mps 651 mmHg 29%
    10:00 +26°C° 0 mm 3 mps 652 mmHg 25%
    11:00 +28°C° 0 mm 3 mps 652 mmHg 22%
    12:00 +29°C° 0 mm 4 mps 652 mmHg 21%
    13:00 +30°C° 0 mm 4 mps 651 mmHg 20%
    14:00 +32°C° 0 mm 5 mps 651 mmHg 19%
    15:00 +32°C° 0 mm 5 mps 650 mmHg 20%
    16:00 +30°C° 0 mm 4 mps 650 mmHg 21%
    17:00 +30°C° 0 mm 4 mps 650 mmHg 22%
    18:00 +27°C° 0 mm 3 mps 649 mmHg 27%
    19:00 +25°C° 0 mm 2 mps 649 mmHg 32%
    20:00 +23°C° 0 mm 1 mps 648 mmHg 36%
    21:00 +23°C° 0 mm 1 mps 648 mmHg 36%
    22:00 +23°C° 0 mm 2 mps 649 mmHg 36%
    23:00 +22°C° 0 mm 3 mps 649 mmHg 36%

    Day after tomorrow, 7 April, Tuesday

    Time Temperature Precipitation Wind Pressure Humidity
    00:00 +21°C° 0 mm 3 mps 649 mmHg 35%
    01:00 +20°C° 0 mm 3 mps 648 mmHg 34%
    02:00 +18°C° 0 mm 3 mps 648 mmHg 34%
    03:00 +18°C° 0 mm 2 mps 648 mmHg 34%
    04:00 +17°C° 0 mm 2 mps 648 mmHg 34%
    05:00 +18°C° 0 mm 1 mps 648 mmHg 34%
    06:00 +19°C° 0 mm 1 mps 649 mmHg 32%
    07:00 +21°C° 0 mm 1 mps 650 mmHg 30%
    08:00 +22°C° 0 mm 1 mps 650 mmHg 27%
    09:00 +24°C° 0 mm 1 mps 651 mmHg 24%
    10:00 +26°C° 0 mm 2 mps 652 mmHg 22%
    11:00 +28°C° 0 mm 2 mps 652 mmHg 19%
    12:00 +29°C° 0 mm 3 mps 652 mmHg 18%
    13:00 +30°C° 0 mm 4 mps 652 mmHg 18%
    14:00 +32°C° 0 mm 4 mps 651 mmHg 18%
    15:00 +32°C° 0 mm 4 mps 651 mmHg 18%
    16:00 +30°C° 0 mm 5 mps 651 mmHg 18%
    17:00 +29°C° 0 mm 5 mps 650 mmHg 18%
    18:00 +27°C° 0 mm 5 mps 650 mmHg 20%
    19:00 +25°C° 0 mm 4 mps 650 mmHg 22%
    20:00 +21°C° 0 mm 4 mps 650 mmHg 24%
    21:00 +20°C° 0 mm 3 mps 650 mmHg 25%
    22:00 +19°C° 0 mm 3 mps 650 mmHg 27%
    23:00 +18°C° 0 mm 3 mps 651 mmHg 29%

    8 April, Wednesday

    Time Temperature Precipitation Wind Pressure Humidity
    00:00 +17°C° 0 mm 2 mps 650 mmHg 30%
    01:00 +17°C° 0 mm 2 mps 650 mmHg 31%
    02:00 +16°C° 0 mm 2 mps 650 mmHg 32%
    03:00 +16°C° 0 mm 2 mps 650 mmHg 32%
    04:00 +15°C° 0 mm 1 mps 650 mmHg 32%
    05:00 +15°C° 0 mm 1 mps 650 mmHg 33%
    06:00 +17°C° 0 mm 2 mps 651 mmHg 30%
    07:00 +18°C° 0 mm 3 mps 652 mmHg 28%
    08:00 +19°C° 0 mm 4 mps 653 mmHg 26%
    09:00 +21°C° 0 mm 5 mps 653 mmHg 34%
    10:00 +23°C° 0 mm 6 mps 654 mmHg 42%
    11:00 +24°C° 0 mm 8 mps 654 mmHg 50%
    12:00 +27°C° 0 mm 7 mps 654 mmHg 44%
    13:00 +28°C° 0 mm 6 mps 654 mmHg 38%
    14:00 +29°C° 0 mm 5 mps 653 mmHg 32%
    15:00 +29°C° 0 mm 5 mps 653 mmHg 32%
    16:00 +29°C° 0 mm 5 mps 653 mmHg 33%
    17:00 +28°C° 0 mm 5 mps 652 mmHg 34%
    18:00 +26°C° 0 mm 5 mps 652 mmHg 43%
    19:00 +23°C° 0 mm 5 mps 652 mmHg 51%
    20:00 +21°C° 0 mm 5 mps 652 mmHg 60%
    21:00 +20°C° 0 mm 5 mps 653 mmHg 64%
    22:00 +20°C° 0 mm 6 mps 653 mmHg 68%
    23:00 +19°C° 0 mm 6 mps 653 mmHg 71%

    9 April, Thursday

    Time Temperature Precipitation Wind Pressure Humidity
    00:00 +17°C° 0 mm 6 mps 653 mmHg 75%
    01:00 +16°C° 0 mm 7 mps 653 mmHg 78%
    02:00 +16°C° 0 mm 7 mps 653 mmHg 81%
    03:00 +16°C° 0 mm 7 mps 654 mmHg 81%
    04:00 +15°C° 0 mm 8 mps 654 mmHg 80%
    05:00 +15°C° 0 mm 8 mps 654 mmHg 80%
    06:00 +15°C° 0 mm 8 mps 654 mmHg 79%
    07:00 +16°C° 0 mm 8 mps 655 mmHg 78%
    08:00 +16°C° 0 mm 8 mps 655 mmHg 77%
    09:00 +17°C° 0 mm 8 mps 655 mmHg 70%
    10:00 +20°C° 0 mm 8 mps 656 mmHg 64%
    11:00 +21°C° 0 mm 8 mps 656 mmHg 58%
    12:00 +23°C° 0 mm 7 mps 656 mmHg 52%
    13:00 +26°C° 0 mm 7 mps 656 mmHg 47%
    14:00 +27°C° 0 mm 6 mps 655 mmHg 41%
    15:00 +27°C° 0 mm 6 mps 655 mmHg 41%
    16:00 +27°C° 0 mm 6 mps 654 mmHg 41%
    17:00 +27°C° 0 mm 6 mps 654 mmHg 41%
    18:00 +25°C° 0 mm 5 mps 654 mmHg 46%
    19:00 +22°C° 0 mm 5 mps 654 mmHg 51%
    20:00 +21°C° 0 mm 4 mps 654 mmHg 56%
    21:00 +20°C° 0 mm 4 mps 654 mmHg 58%
    22:00 +20°C° 0 mm 4 mps 654 mmHg 60%
    23:00 +19°C° 0 mm 4 mps 654 mmHg 61%

    10 April, Friday

    Time Temperature Precipitation Wind Pressure Humidity
    00:00 +18°C° 0 mm 4 mps 654 mmHg 65%
    01:00 +18°C° 0 mm 4 mps 655 mmHg 68%
    02:00 +16°C° 0 mm 5 mps 655 mmHg 72%
    03:00 +16°C° 0 mm 5 mps 655 mmHg 74%
    04:00 +15°C° 0 mm 5 mps 654 mmHg 76%
    05:00 +15°C° 0 mm 6 mps 654 mmHg 78%
    06:00 +15°C° 0 mm 6 mps 655 mmHg 76%
    07:00 +15°C° 0 mm 6 mps 655 mmHg 75%
    08:00 +16°C° 0 mm 6 mps 655 mmHg 74%
    09:00 +19°C° 0 mm 6 mps 656 mmHg 65%
    10:00 +21°C° 0 mm 6 mps 656 mmHg 56%
    11:00 +23°C° 0 mm 6 mps 657 mmHg 48%
    12:00 +26°C° 0 mm 5 mps 656 mmHg 43%
    13:00 +27°C° 0 mm 4 mps 656 mmHg 37%
    14:00 +28°C° 0 mm 4 mps 655 mmHg 32%
    15:00 +28°C° 0 mm 3 mps 655 mmHg 32%
    16:00 +28°C° 0 mm 3 mps 654 mmHg 31%
    17:00 +28°C° 0 mm 3 mps 654 mmHg 31%
    18:00 +27°C° 0 mm 3 mps 653 mmHg 34%
    19:00 +25°C° 0 mm 3 mps 653 mmHg 37%
    20:00 +24°C° 0 mm 3 mps 653 mmHg 39%
    21:00 +22°C° 0 mm 3 mps 653 mmHg 43%
    22:00 +21°C° 0 mm 3 mps 653 mmHg 46%
    23:00 +20°C° 0 mm 3 mps 653 mmHg 49%
    Show more